This is the latest recevied weather packets stored in our database for station/object KD8OZS. If no packets are shown the sender has not sent any weather packets the latest 10 day(s).
| Time | Temp. | Humidity | Pressure | Rain* | Wind** | Luminosity | Snow |
|---|---|---|---|---|---|---|---|
| 1787866612 | 27.78° C | 68% | 1006.7 hPa | 0 mm | - | 109 W/m² | - |
| 1787866310 | 27.78° C | 68% | 1006.9 hPa | 0 mm | - | 260 W/m² | - |
| 1787866005 | 27.22° C | 67% | 1006.7 hPa | 0 mm | - | 304 W/m² | - |
| 1787865701 | 26.67° C | 69% | 1006.8 hPa | 0 mm | - | 196 W/m² | - |
| 1787865400 | 27.22° C | 67% | 1006.9 hPa | 0 mm | - | 66 W/m² | - |
| 1787865095 | 27.78° C | 64% | 1006.8 hPa | 0 mm | - | 321 W/m² | - |
| 1787864791 | 27.78° C | 66% | 1006.8 hPa | 0 mm | - | 336 W/m² | - |
| 1787864486 | 26.67° C | 68% | 1006.9 hPa | 0 mm | - | 340 W/m² | - |
| 1787864185 | 26.67° C | 67% | 1007 hPa | 0 mm | - | 236 W/m² | - |
| 1787863880 | 27.22° C | 65% | 1006.7 hPa | 0 mm | - | 75 W/m² | - |
| 1787863578 | 27.22° C | 68% | 1006.8 hPa | 0 mm | - | 463 W/m² | - |
| 1787863273 | 27.22° C | 66% | 1006.8 hPa | 0 mm | - | 87 W/m² | - |
| 1787862969 | 27.22° C | 67% | 1007 hPa | 0 mm | - | 126 W/m² | - |
| 1787862664 | 28.33° C | 65% | 1006.8 hPa | 0 mm | - | 92 W/m² | - |
| 1787862359 | 27.78° C | 63% | 1006.9 hPa | 0 mm | - | 394 W/m² | - |
| 1787862055 | 27.78° C | 64% | 1006.7 hPa | 0 mm | - | 427 W/m² | - |
| 1787861754 | 27.78° C | 66% | 1007 hPa | 0 mm | - | 170 W/m² | - |
| 1787861452 | 28.33° C | 62% | 1007 hPa | 0 mm | - | 508 W/m² | - |
| 1787861148 | 27.78° C | 61% | 1006.9 hPa | 0 mm | - | 534 W/m² | - |
| 1787860846 | 28.33° C | 64% | 1006.9 hPa | 0 mm | - | 266 W/m² | - |
| 1787860541 | 28.33° C | 65% | 1006.8 hPa | 0 mm | - | 318 W/m² | - |
| 1787860236 | 27.78° C | 64% | 1006.9 hPa | 0 mm | - | 477 W/m² | - |
| 1787859931 | 27.22° C | 66% | 1007 hPa | 0 mm | - | 556 W/m² | - |
| 1787859627 | 27.78° C | 66% | 1007.2 hPa | 0 mm | - | 191 W/m² | - |
| 1787859326 | 27.78° C | 65% | 1007.2 hPa | 0 mm | - | 239 W/m² | - |
* Rain latest hour (hover to see other rain measurements)
** Current wind speed in m/s (hover to see current wind gust speed)